BAW534 EGLL-LPPD

Flight info

Callsign BAW534
Flight time N/A
Altitude 37000
Route GASGU2J GASGU N866 SAM M195 LORKU DCT EBOMO DCT COQUE DCT KORUL DCT RIPEL DCT ERPES/M079F380 DCT LENSI DCT BAVAS BAVAS5A
Aircraft A319/M-SDE3FGIJ1KRWXY/LB1

Departure

Time N/A
Airport London Heathrow Airport (EGLL)

Arrival

Time 2026-05-04 14:34
Airport João Paulo II Airport (LPPD)
Time Latitude Longitude Altitude Speed Heading
2026-05-04 11:00 51.24063 -0.64785 13662 ft 343 kts 236°
2026-05-04 11:01 51.14803 -0.87581 18024 ft 360 kts 236°
2026-05-04 11:02 51.13431 -0.90946 18612 ft 363 kts 236°
2026-05-04 11:02 51.12052 -0.94327 19151 ft 366 kts 236°
2026-05-04 11:05 50.89503 -1.40784 25786 ft 396 kts 212°
2026-05-04 11:06 50.87192 -1.43180 26195 ft 398 kts 212°
2026-05-04 11:06 50.84847 -1.45621 26606 ft 399 kts 212°
2026-05-04 11:06 50.82516 -1.48047 27003 ft 401 kts 212°
2026-05-04 11:06 50.80182 -1.50474 27399 ft 403 kts 212°
2026-05-04 11:08 50.63514 -1.67669 29928 ft 416 kts 212°
2026-05-04 11:10 50.46370 -1.85214 32134 ft 420 kts 212°
2026-05-04 11:12 50.29229 -2.02578 34451 ft 418 kts 212°
2026-05-04 11:12 50.26787 -2.05046 34706 ft 419 kts 212°
2026-05-04 11:12 50.24334 -2.07522 34960 ft 420 kts 212°
2026-05-04 11:12 50.21872 -2.09974 35197 ft 420 kts 212°
2026-05-04 11:13 50.19392 -2.12396 35435 ft 421 kts 211°
2026-05-04 11:13 50.16901 -2.14804 35668 ft 421 kts 211°
2026-05-04 11:13 50.14408 -2.17210 35895 ft 422 kts 211°
2026-05-04 11:13 50.11910 -2.19624 36119 ft 422 kts 211°
2026-05-04 11:14 50.09413 -2.22044 36344 ft 423 kts 211°
2026-05-04 11:14 50.06910 -2.24474 36561 ft 423 kts 211°
2026-05-04 11:14 50.04410 -2.26897 36760 ft 424 kts 211°
2026-05-04 11:16 49.86818 -2.43845 37026 ft 425 kts 211°
2026-05-04 11:16 49.81790 -2.48674 37028 ft 426 kts 211°
2026-05-04 11:17 49.76753 -2.53505 37022 ft 426 kts 211°
2026-05-04 11:19 49.56581 -2.72703 37023 ft 426 kts 211°
2026-05-04 11:19 49.51533 -2.77477 37024 ft 426 kts 211°
2026-05-04 11:20 49.46483 -2.82237 37025 ft 426 kts 211°
2026-05-04 11:20 49.41426 -2.86995 37024 ft 426 kts 211°
2026-05-04 11:22 49.21187 -3.05924 37013 ft 426 kts 211°
2026-05-04 11:23 49.16122 -3.10632 37013 ft 426 kts 211°
2026-05-04 11:25 48.98339 -3.27080 36994 ft 430 kts 210°
2026-05-04 11:25 48.93203 -3.31807 36998 ft 433 kts 210°
2026-05-04 11:27 48.69846 -3.53136 37017 ft 437 kts 210°
2026-05-04 11:28 48.65514 -3.57066 37013 ft 437 kts 210°
2026-05-04 11:28 48.60289 -3.61799 36991 ft 438 kts 210°
2026-05-04 11:29 48.55056 -3.66530 36998 ft 438 kts 210°
2026-05-04 11:29 48.49822 -3.71253 37001 ft 439 kts 210°
2026-05-04 11:33 48.13102 -4.04028 37000 ft 438 kts 210°
2026-05-04 11:33 48.07853 -4.08675 37004 ft 438 kts 210°
2026-05-04 11:34 48.02596 -4.13304 37005 ft 439 kts 210°
2026-05-04 11:34 47.97366 -4.17897 37009 ft 439 kts 210°
2026-05-04 11:35 47.92069 -4.22542 37010 ft 439 kts 210°
2026-05-04 11:35 47.86804 -4.27155 37007 ft 439 kts 210°
2026-05-04 11:36 47.81537 -4.31744 37011 ft 439 kts 210°
2026-05-04 11:36 47.76321 -4.36488 37009 ft 439 kts 211°
2026-05-04 11:37 47.71174 -4.41351 37008 ft 438 kts 212°
2026-05-04 11:37 47.66014 -4.46185 37005 ft 438 kts 211°
2026-05-04 11:38 47.60831 -4.50959 37009 ft 438 kts 211°
2026-05-04 11:38 47.55645 -4.55706 37005 ft 438 kts 211°
2026-05-04 11:39 47.50449 -4.60462 37004 ft 439 kts 211°
2026-05-04 11:41 47.32273 -4.77062 37010 ft 439 kts 211°
2026-05-04 11:41 47.27068 -4.81768 37008 ft 439 kts 211°
2026-05-04 11:42 47.21897 -4.86440 37013 ft 439 kts 211°
2026-05-04 11:42 47.16663 -4.91176 37011 ft 439 kts 211°
2026-05-04 11:43 47.11459 -4.95872 37014 ft 439 kts 211°
2026-05-04 11:43 47.06247 -5.00557 37014 ft 439 kts 211°
2026-05-04 11:44 47.01074 -5.05206 37018 ft 439 kts 211°
2026-05-04 11:44 46.95871 -5.09888 37022 ft 439 kts 211°
2026-05-04 11:45 46.90663 -5.14555 37029 ft 439 kts 211°
2026-05-04 11:45 46.85416 -5.19249 37025 ft 439 kts 211°
2026-05-04 11:46 46.80235 -5.23872 37028 ft 439 kts 211°
2026-05-04 11:46 46.75020 -5.28513 37026 ft 439 kts 211°
2026-05-04 11:47 46.69805 -5.33151 37025 ft 439 kts 211°
2026-05-04 11:47 46.64585 -5.37772 37027 ft 439 kts 211°
2026-05-04 11:48 46.59370 -5.42387 37029 ft 439 kts 211°
2026-05-04 11:48 46.54116 -5.47024 37030 ft 439 kts 211°
2026-05-04 11:49 46.48896 -5.51606 37028 ft 438 kts 211°
2026-05-04 11:49 46.43677 -5.56184 37018 ft 438 kts 211°
2026-05-04 11:50 46.38457 -5.60752 37015 ft 438 kts 211°
2026-05-04 11:50 46.33234 -5.65316 37023 ft 439 kts 211°
2026-05-04 11:51 46.28011 -5.69884 37022 ft 439 kts 211°
2026-05-04 11:51 46.22780 -5.74436 37019 ft 439 kts 211°
2026-05-04 11:52 46.17549 -5.78979 37014 ft 439 kts 211°
2026-05-04 11:52 46.12320 -5.83520 37014 ft 439 kts 211°
2026-05-04 11:53 46.07080 -5.88042 37017 ft 439 kts 211°
2026-05-04 11:53 46.01837 -5.92559 37013 ft 439 kts 211°
2026-05-04 11:55 45.80845 -6.10559 37005 ft 439 kts 211°
2026-05-04 11:56 45.75592 -6.15034 37010 ft 440 kts 211°
2026-05-04 11:56 45.70333 -6.19515 37006 ft 440 kts 211°
2026-05-04 11:57 45.65070 -6.23988 37007 ft 440 kts 211°
2026-05-04 11:57 45.59794 -6.28446 37008 ft 440 kts 211°
2026-05-04 11:58 45.54524 -6.32895 37012 ft 440 kts 211°
2026-05-04 11:58 45.49253 -6.37345 37015 ft 440 kts 211°
2026-05-04 11:59 45.43980 -6.41791 37014 ft 440 kts 211°
2026-05-04 11:59 45.38706 -6.46225 37014 ft 440 kts 211°
2026-05-04 12:00 45.33420 -6.50633 37016 ft 440 kts 211°
2026-05-04 12:00 45.28167 -6.55014 37018 ft 440 kts 211°
2026-05-04 12:01 45.22881 -6.59416 37022 ft 440 kts 211°
2026-05-04 12:02 45.04385 -6.74790 37025 ft 441 kts 211°
2026-05-04 12:03 44.99091 -6.79170 37019 ft 441 kts 211°
2026-05-04 12:03 44.93795 -6.83540 37020 ft 441 kts 211°
2026-05-04 12:04 44.88491 -6.87898 37023 ft 441 kts 211°
2026-05-04 12:04 44.83370 -6.92632 37013 ft 440 kts 222°
2026-05-04 12:05 44.79242 -6.98972 37021 ft 439 kts 230°
2026-05-04 12:05 44.75251 -7.05495 37025 ft 440 kts 230°
2026-05-04 12:06 44.71899 -7.10953 37017 ft 440 kts 229°
2026-05-04 12:06 44.67888 -7.17449 37025 ft 440 kts 229°
2026-05-04 12:07 44.63870 -7.23943 37019 ft 440 kts 229°
2026-05-04 12:07 44.59847 -7.30432 37025 ft 441 kts 230°
2026-05-04 12:08 44.55825 -7.36924 37025 ft 441 kts 230°
2026-05-04 12:08 44.51799 -7.43417 37029 ft 441 kts 230°
2026-05-04 12:09 44.47765 -7.49896 37031 ft 441 kts 230°
2026-05-04 12:09 44.43725 -7.56362 37029 ft 441 kts 229°
2026-05-04 12:10 44.39674 -7.62814 37035 ft 441 kts 230°
2026-05-04 12:10 44.35631 -7.69269 37038 ft 441 kts 230°
2026-05-04 12:11 44.31588 -7.75715 37036 ft 441 kts 230°
2026-05-04 12:11 44.27531 -7.82145 37036 ft 441 kts 230°
2026-05-04 12:12 44.23474 -7.88556 37039 ft 441 kts 230°
2026-05-04 12:12 44.19421 -7.94977 37041 ft 441 kts 230°
2026-05-04 12:14 44.03145 -8.20527 37052 ft 440 kts 230°
2026-05-04 12:15 43.99084 -8.26882 37049 ft 440 kts 230°
2026-05-04 12:15 43.95016 -8.33225 37053 ft 439 kts 230°
2026-05-04 12:16 43.90946 -8.39555 37048 ft 439 kts 230°
2026-05-04 12:16 43.86870 -8.45868 37048 ft 439 kts 230°
2026-05-04 12:17 43.82791 -8.52182 37050 ft 439 kts 230°
2026-05-04 12:17 43.78718 -8.58489 37051 ft 439 kts 230°
2026-05-04 12:18 43.74628 -8.64779 37051 ft 440 kts 230°
2026-05-04 12:18 43.70540 -8.71061 37057 ft 439 kts 230°
2026-05-04 12:19 43.66448 -8.77347 37057 ft 439 kts 230°
2026-05-04 12:19 43.62360 -8.83614 37060 ft 439 kts 230°
2026-05-04 12:20 43.58291 -8.89822 37059 ft 439 kts 230°
2026-05-04 12:20 43.54198 -8.96059 37058 ft 438 kts 230°
2026-05-04 12:21 43.50107 -9.02294 37059 ft 438 kts 230°
2026-05-04 12:21 43.46010 -9.08511 37059 ft 438 kts 230°
2026-05-04 12:22 43.41879 -9.14756 37061 ft 438 kts 230°
2026-05-04 12:22 43.37773 -9.20957 37067 ft 438 kts 230°
2026-05-04 12:23 43.33667 -9.27153 37063 ft 438 kts 230°
2026-05-04 12:23 43.29560 -9.33336 37066 ft 438 kts 230°
2026-05-04 12:24 43.25450 -9.39504 37065 ft 438 kts 230°
2026-05-04 12:24 43.21331 -9.45664 37071 ft 438 kts 230°
2026-05-04 12:25 43.17215 -9.51820 37078 ft 438 kts 230°
2026-05-04 12:25 43.13093 -9.57972 37082 ft 438 kts 230°
2026-05-04 12:26 43.09002 -9.64079 37080 ft 438 kts 230°
2026-05-04 12:26 43.04847 -9.70254 37087 ft 438 kts 230°
2026-05-04 12:27 43.00709 -9.76368 37090 ft 438 kts 230°
2026-05-04 12:27 42.96565 -9.82481 37092 ft 438 kts 230°
2026-05-04 12:28 42.92426 -9.88590 37095 ft 438 kts 230°
2026-05-04 12:28 42.88288 -9.94698 37101 ft 438 kts 230°
2026-05-04 12:29 42.84145 -10.00801 37102 ft 438 kts 230°
2026-05-04 12:29 42.79990 -10.06882 37104 ft 438 kts 230°
2026-05-04 12:30 42.75862 -10.12917 37106 ft 438 kts 230°
2026-05-04 12:30 42.71685 -10.19018 37104 ft 438 kts 230°
2026-05-04 12:31 42.67532 -10.25078 37109 ft 438 kts 230°
2026-05-04 12:31 42.63405 -10.31077 37115 ft 437 kts 230°
2026-05-04 12:32 42.57167 -10.40111 37116 ft 437 kts 230°
2026-05-04 12:33 42.52985 -10.46167 37112 ft 437 kts 230°
2026-05-04 12:33 42.48830 -10.52165 37113 ft 436 kts 230°
2026-05-04 12:34 42.44678 -10.58150 37115 ft 436 kts 230°
2026-05-04 12:34 42.40521 -10.64120 37115 ft 435 kts 230°
2026-05-04 12:35 42.36365 -10.70079 37117 ft 435 kts 230°
2026-05-04 12:35 42.32205 -10.76022 37120 ft 435 kts 230°
2026-05-04 12:36 42.28119 -10.82028 37118 ft 432 kts 236°
2026-05-04 12:36 42.24711 -10.88675 37123 ft 430 kts 239°
2026-05-04 12:37 42.21324 -10.95320 37123 ft 430 kts 239°
2026-05-04 12:37 42.17919 -11.01956 37126 ft 430 kts 239°
2026-05-04 12:38 42.14514 -11.08573 37128 ft 430 kts 239°
2026-05-04 12:38 42.11107 -11.15189 37131 ft 430 kts 239°
2026-05-04 12:39 42.07701 -11.21803 37138 ft 429 kts 239°
2026-05-04 12:39 42.04295 -11.28407 37138 ft 429 kts 239°
2026-05-04 12:40 42.00886 -11.34996 37139 ft 429 kts 239°
2026-05-04 12:40 41.97472 -11.41572 37139 ft 429 kts 239°
2026-05-04 12:41 41.94053 -11.48139 37139 ft 429 kts 239°
2026-05-04 12:41 41.90636 -11.54698 37139 ft 428 kts 239°
2026-05-04 12:42 41.87219 -11.61245 37141 ft 428 kts 239°
2026-05-04 12:42 41.83804 -11.67780 37141 ft 428 kts 239°
2026-05-04 12:43 41.80962 -11.73203 37144 ft 428 kts 239°
2026-05-04 12:43 41.77539 -11.79725 37142 ft 427 kts 239°
2026-05-04 12:44 41.74115 -11.86221 37142 ft 427 kts 239°
2026-05-04 12:44 41.70686 -11.92700 37150 ft 426 kts 239°
2026-05-04 12:45 41.67266 -11.99178 37145 ft 426 kts 239°
2026-05-04 12:45 41.63841 -12.05652 37148 ft 426 kts 239°
2026-05-04 12:46 41.60419 -12.12111 37146 ft 426 kts 239°
2026-05-04 12:46 41.56985 -12.18559 37149 ft 426 kts 239°
2026-05-04 12:47 41.53546 -12.24997 37153 ft 426 kts 239°
2026-05-04 12:47 41.50107 -12.31427 37149 ft 425 kts 239°
2026-05-04 12:48 41.46670 -12.37849 37156 ft 425 kts 239°
2026-05-04 12:48 41.43234 -12.44263 37158 ft 425 kts 239°
2026-05-04 12:49 41.39784 -12.50664 37162 ft 425 kts 239°
2026-05-04 12:49 41.36331 -12.57060 37167 ft 425 kts 239°
2026-05-04 12:50 41.32886 -12.63450 37166 ft 425 kts 239°
2026-05-04 12:50 41.29435 -12.69824 37169 ft 425 kts 239°
2026-05-04 12:51 41.25984 -12.76194 37174 ft 424 kts 239°
2026-05-04 12:51 41.22524 -12.82551 37174 ft 424 kts 239°
2026-05-04 12:52 41.19070 -12.88907 37180 ft 424 kts 239°
2026-05-04 12:52 41.15618 -12.95243 37185 ft 424 kts 239°
2026-05-04 12:53 41.12159 -13.01572 37186 ft 423 kts 239°
2026-05-04 12:53 41.08705 -13.07883 37185 ft 423 kts 239°
2026-05-04 12:54 41.05246 -13.14177 37188 ft 422 kts 239°
2026-05-04 12:54 41.01781 -13.20470 37189 ft 422 kts 239°
2026-05-04 12:55 40.98322 -13.26739 37188 ft 422 kts 239°
2026-05-04 12:55 40.94858 -13.33002 37187 ft 421 kts 239°
2026-05-04 12:56 40.91401 -13.39252 37187 ft 421 kts 239°
2026-05-04 12:56 40.87943 -13.45489 37191 ft 420 kts 239°
2026-05-04 12:57 40.84490 -13.51715 37190 ft 420 kts 239°
2026-05-04 12:57 40.81031 -13.57938 37188 ft 420 kts 239°
2026-05-04 12:58 40.77566 -13.64138 37188 ft 419 kts 239°
2026-05-04 12:58 40.74100 -13.70329 37189 ft 419 kts 239°
2026-05-04 12:59 40.70636 -13.76510 37192 ft 419 kts 239°
2026-05-04 12:59 40.67166 -13.82698 37191 ft 419 kts 239°
2026-05-04 13:00 40.63692 -13.88860 37192 ft 419 kts 239°
2026-05-04 13:00 40.60240 -13.94984 37183 ft 418 kts 239°
2026-05-04 13:01 40.56774 -14.01130 37189 ft 418 kts 239°
2026-05-04 13:01 40.53302 -14.07271 37193 ft 418 kts 239°
2026-05-04 13:02 40.49821 -14.13407 37195 ft 418 kts 239°
2026-05-04 13:02 40.46337 -14.19542 37197 ft 419 kts 239°
2026-05-04 13:03 40.42855 -14.25663 37198 ft 419 kts 239°
2026-05-04 13:03 40.39366 -14.31783 37197 ft 419 kts 239°
2026-05-04 13:04 40.35873 -14.37894 37203 ft 418 kts 239°
2026-05-04 13:04 40.32379 -14.43985 37201 ft 418 kts 239°
2026-05-04 13:05 40.28892 -14.50077 37202 ft 418 kts 239°
2026-05-04 13:05 40.25404 -14.56165 37204 ft 417 kts 239°
2026-05-04 13:06 40.21902 -14.62228 37205 ft 417 kts 239°
2026-05-04 13:06 40.18406 -14.68290 37204 ft 417 kts 239°
2026-05-04 13:07 40.14937 -14.74298 37204 ft 416 kts 239°
2026-05-04 13:07 40.11440 -14.80336 37204 ft 416 kts 239°
2026-05-04 13:08 40.07923 -14.86386 37200 ft 415 kts 239°
2026-05-04 13:08 40.04451 -14.92354 37193 ft 415 kts 239°
2026-05-04 13:09 40.01061 -14.98424 37192 ft 410 kts 245°
2026-05-04 13:09 39.99068 -15.05232 37194 ft 399 kts 262°
2026-05-04 13:10 39.97845 -15.12333 37195 ft 399 kts 261°
2026-05-04 13:10 39.96597 -15.19339 37196 ft 399 kts 261°
2026-05-04 13:11 39.95325 -15.26395 37198 ft 400 kts 261°
2026-05-04 13:11 39.94057 -15.33450 37204 ft 400 kts 261°
2026-05-04 13:12 39.92786 -15.40553 37206 ft 400 kts 261°
2026-05-04 13:12 39.91522 -15.47613 37211 ft 400 kts 261°
2026-05-04 13:13 39.90243 -15.54665 37214 ft 400 kts 260°
2026-05-04 13:13 39.88965 -15.61711 37212 ft 400 kts 260°
2026-05-04 13:14 39.87682 -15.68754 37212 ft 400 kts 260°
2026-05-04 13:14 39.86397 -15.75804 37209 ft 400 kts 260°
2026-05-04 13:15 39.85105 -15.82849 37208 ft 400 kts 260°
2026-05-04 13:15 39.83807 -15.89897 37212 ft 400 kts 260°
2026-05-04 13:16 39.82503 -15.96936 37220 ft 401 kts 260°
2026-05-04 13:16 39.81197 -16.03984 37209 ft 401 kts 260°
2026-05-04 13:17 39.79883 -16.11026 37215 ft 401 kts 260°
2026-05-04 13:17 39.78566 -16.18068 37205 ft 401 kts 259°
2026-05-04 13:18 39.77248 -16.25107 37209 ft 401 kts 259°
2026-05-04 13:18 39.75928 -16.32151 37213 ft 401 kts 259°
2026-05-04 13:19 39.74597 -16.39197 37208 ft 401 kts 259°
2026-05-04 13:19 39.73258 -16.46235 37212 ft 402 kts 259°
2026-05-04 13:20 39.71919 -16.53283 37213 ft 402 kts 259°
2026-05-04 13:20 39.70573 -16.60330 37214 ft 402 kts 259°
2026-05-04 13:21 39.69223 -16.67385 37215 ft 403 kts 259°
2026-05-04 13:21 39.68105 -16.73250 37219 ft 403 kts 259°
2026-05-04 13:22 39.66743 -16.80311 37219 ft 404 kts 258°
2026-05-04 13:22 39.65366 -16.87375 37220 ft 404 kts 258°
2026-05-04 13:23 39.63989 -16.94444 37222 ft 404 kts 258°
2026-05-04 13:23 39.62611 -17.01532 37224 ft 405 kts 258°
2026-05-04 13:24 39.61229 -17.08618 37226 ft 405 kts 258°
2026-05-04 13:24 39.59843 -17.15699 37229 ft 406 kts 258°
2026-05-04 13:25 39.57734 -17.26336 37231 ft 407 kts 258°
2026-05-04 13:25 39.56327 -17.33441 37231 ft 407 kts 258°
2026-05-04 13:26 39.54923 -17.40545 37233 ft 407 kts 258°
2026-05-04 13:26 39.53511 -17.47653 37237 ft 408 kts 257°
2026-05-04 13:27 39.52090 -17.54763 37239 ft 408 kts 257°
2026-05-04 13:27 39.50662 -17.61883 37239 ft 409 kts 257°
2026-05-04 13:28 39.49226 -17.69002 37242 ft 409 kts 257°
2026-05-04 13:28 39.47783 -17.76129 37245 ft 409 kts 257°
2026-05-04 13:29 39.46336 -17.83249 37244 ft 409 kts 257°
2026-05-04 13:29 39.44885 -17.90372 37244 ft 409 kts 257°
2026-05-04 13:30 39.43433 -17.97495 37243 ft 410 kts 257°
2026-05-04 13:30 39.41976 -18.04624 37244 ft 410 kts 257°
2026-05-04 13:31 39.40512 -18.11750 37240 ft 410 kts 256°
2026-05-04 13:31 39.39039 -18.18884 37243 ft 411 kts 256°
2026-05-04 13:32 39.37559 -18.26013 37242 ft 411 kts 256°
2026-05-04 13:32 39.36072 -18.33150 37239 ft 411 kts 256°
2026-05-04 13:33 39.34586 -18.40292 37242 ft 412 kts 256°
2026-05-04 13:33 39.33099 -18.47445 37241 ft 412 kts 256°
2026-05-04 13:34 39.31600 -18.54602 37243 ft 413 kts 256°
2026-05-04 13:34 39.30087 -18.61764 37245 ft 414 kts 256°
2026-05-04 13:35 39.27813 -18.72518 37248 ft 414 kts 256°
2026-05-04 13:36 39.26289 -18.79696 37251 ft 415 kts 256°
2026-05-04 13:36 39.24767 -18.86876 37246 ft 415 kts 255°
2026-05-04 13:37 39.23235 -18.94067 37247 ft 416 kts 255°
2026-05-04 13:37 39.21692 -19.01258 37249 ft 416 kts 255°
2026-05-04 13:38 39.20139 -19.08451 37252 ft 416 kts 255°
2026-05-04 13:38 39.18583 -19.15648 37252 ft 417 kts 255°
2026-05-04 13:39 39.17023 -19.22849 37250 ft 417 kts 255°
2026-05-04 13:39 39.15457 -19.30049 37251 ft 418 kts 255°
2026-05-04 13:40 39.13886 -19.37252 37248 ft 418 kts 255°
2026-05-04 13:40 39.12311 -19.44463 37254 ft 418 kts 255°
2026-05-04 13:41 39.10735 -19.51675 37255 ft 419 kts 255°
2026-05-04 13:41 39.09149 -19.58897 37254 ft 419 kts 255°
2026-05-04 13:42 39.06757 -19.69728 37260 ft 420 kts 255°
2026-05-04 13:42 39.05160 -19.76950 37259 ft 420 kts 255°
2026-05-04 13:43 39.03542 -19.84183 37264 ft 420 kts 254°
2026-05-04 13:43 39.01920 -19.91413 37260 ft 421 kts 254°
2026-05-04 13:44 39.00377 -19.98666 37262 ft 421 kts 259°
2026-05-04 13:44 39.00106 -20.06159 37269 ft 421 kts 271°
2026-05-04 13:45 39.00227 -20.13682 37263 ft 421 kts 270°
2026-05-04 13:45 39.00322 -20.21215 37265 ft 421 kts 270°
2026-05-04 13:46 39.00421 -20.28751 37269 ft 422 kts 270°
2026-05-04 13:46 39.00514 -20.36292 37272 ft 422 kts 270°
2026-05-04 13:47 39.00602 -20.43837 37271 ft 422 kts 270°
2026-05-04 13:47 39.00691 -20.51388 37274 ft 423 kts 270°
2026-05-04 13:48 39.00779 -20.58948 37279 ft 423 kts 270°
2026-05-04 13:48 39.00860 -20.66512 37282 ft 423 kts 270°
2026-05-04 13:49 39.00934 -20.74083 37285 ft 423 kts 270°
2026-05-04 13:49 39.01005 -20.81653 37287 ft 424 kts 270°
2026-05-04 13:50 39.01070 -20.89226 37292 ft 424 kts 270°
2026-05-04 13:50 39.01129 -20.96802 37290 ft 423 kts 270°
2026-05-04 13:51 39.01173 -21.04366 37292 ft 423 kts 270°
2026-05-04 13:51 39.01218 -21.11933 37291 ft 423 kts 270°
2026-05-04 13:52 39.01288 -21.23279 37290 ft 423 kts 270°
2026-05-04 13:53 39.01327 -21.30840 37291 ft 423 kts 270°
2026-05-04 13:53 39.01361 -21.38407 37286 ft 423 kts 270°
2026-05-04 13:54 39.01401 -21.49757 37286 ft 423 kts 270°
2026-05-04 13:55 39.01425 -21.61109 37289 ft 423 kts 270°
2026-05-04 13:55 39.01445 -21.72457 37289 ft 423 kts 270°
2026-05-04 13:56 39.01449 -21.80021 37290 ft 423 kts 269°
2026-05-04 13:57 39.01441 -21.91370 37289 ft 423 kts 269°
2026-05-04 13:58 39.01425 -22.06504 37291 ft 423 kts 269°
2026-05-04 13:58 39.01405 -22.17870 37301 ft 424 kts 269°
2026-05-04 13:59 39.01377 -22.25453 37301 ft 424 kts 269°
2026-05-04 14:00 39.01333 -22.36813 37302 ft 424 kts 269°
2026-05-04 14:00 39.01277 -22.46896 37302 ft 424 kts 269°
2026-05-04 14:01 39.01234 -22.54467 37313 ft 424 kts 269°
2026-05-04 14:02 39.01158 -22.65829 37309 ft 423 kts 269°
2026-05-04 14:02 39.01099 -22.73395 37304 ft 423 kts 269°
2026-05-04 14:03 39.01037 -22.80968 37306 ft 423 kts 269°
2026-05-04 14:03 39.00982 -22.88537 37297 ft 423 kts 269°
2026-05-04 14:04 39.00875 -22.99896 37312 ft 424 kts 269°
2026-05-04 14:04 39.00798 -23.07468 37307 ft 424 kts 269°
2026-05-04 14:05 39.00674 -23.18829 37312 ft 424 kts 269°
2026-05-04 14:06 39.00583 -23.26406 37313 ft 424 kts 269°
2026-05-04 14:06 39.00485 -23.33985 37316 ft 424 kts 269°
2026-05-04 14:07 39.00381 -23.41562 37315 ft 424 kts 269°
2026-05-04 14:07 39.00280 -23.49142 37313 ft 424 kts 269°
2026-05-04 14:08 39.00173 -23.56711 37308 ft 424 kts 269°
2026-05-04 14:08 38.99896 -23.64277 37319 ft 424 kts 261°
2026-05-04 14:09 38.96358 -23.74588 37311 ft 426 kts 236°
2026-05-04 14:10 38.90593 -23.83287 37302 ft 429 kts 222°
2026-05-04 14:10 38.86044 -23.88178 37302 ft 429 kts 222°
2026-05-04 14:11 38.81456 -23.93090 37300 ft 429 kts 222°
2026-05-04 14:11 38.74582 -24.00451 37302 ft 429 kts 222°
2026-05-04 14:12 38.72287 -24.02905 36895 ft 431 kts 222°
2026-05-04 14:12 38.69959 -24.05398 35920 ft 441 kts 222°
2026-05-04 14:12 38.65204 -24.10491 34306 ft 448 kts 222°
2026-05-04 14:13 38.62808 -24.13050 33406 ft 450 kts 222°
2026-05-04 14:13 38.60406 -24.15610 32317 ft 451 kts 221°
2026-05-04 14:13 38.58005 -24.18171 31712 ft 447 kts 221°
2026-05-04 14:13 38.55632 -24.20696 31157 ft 441 kts 221°
2026-05-04 14:14 38.53277 -24.23191 30595 ft 437 kts 221°
2026-05-04 14:14 38.48641 -24.28094 29435 ft 427 kts 221°
2026-05-04 14:14 38.46374 -24.30498 28894 ft 421 kts 221°
2026-05-04 14:15 38.41924 -24.35217 27818 ft 411 kts 221°
2026-05-04 14:15 38.37567 -24.39819 26766 ft 402 kts 221°
2026-05-04 14:16 38.33312 -24.44314 25779 ft 394 kts 221°
2026-05-04 14:16 38.31232 -24.46509 25313 ft 391 kts 221°
2026-05-04 14:17 38.27070 -24.50898 24392 ft 386 kts 220°
2026-05-04 14:17 38.25002 -24.53073 23951 ft 383 kts 220°
2026-05-04 14:17 38.20923 -24.57351 23023 ft 375 kts 220°
2026-05-04 14:18 38.18916 -24.59453 22591 ft 371 kts 220°
2026-05-04 14:18 38.15004 -24.63549 21723 ft 362 kts 220°
2026-05-04 14:19 38.11157 -24.67581 20827 ft 355 kts 220°
2026-05-04 14:19 38.09257 -24.69570 20372 ft 353 kts 220°
2026-05-04 14:19 38.07364 -24.71547 19908 ft 351 kts 220°
2026-05-04 14:19 38.05483 -24.73511 19442 ft 349 kts 220°
2026-05-04 14:20 38.03608 -24.75468 18973 ft 348 kts 219°
2026-05-04 14:20 38.01764 -24.77391 18489 ft 347 kts 219°
2026-05-04 14:20 37.99902 -24.79331 17983 ft 345 kts 219°
2026-05-04 14:21 37.96221 -24.83162 17043 ft 340 kts 219°
2026-05-04 14:21 37.94398 -24.85060 16572 ft 338 kts 219°
2026-05-04 14:21 37.92576 -24.86953 16102 ft 337 kts 219°
2026-05-04 14:21 37.90764 -24.88830 15632 ft 336 kts 219°
2026-05-04 14:22 37.88955 -24.90703 15166 ft 335 kts 219°
2026-05-04 14:22 37.87151 -24.92571 14699 ft 334 kts 219°
2026-05-04 14:22 37.85354 -24.94431 14227 ft 334 kts 219°
2026-05-04 14:22 37.83554 -24.96297 13726 ft 334 kts 219°
2026-05-04 14:23 37.80005 -24.99974 12785 ft 330 kts 219°
2026-05-04 14:23 37.78231 -25.01809 12317 ft 329 kts 219°
2026-05-04 14:23 37.76465 -25.03637 11856 ft 328 kts 219°
2026-05-04 14:24 37.74702 -25.05459 11390 ft 327 kts 219°
2026-05-04 14:24 37.72944 -25.07273 10931 ft 326 kts 219°
2026-05-04 14:24 37.71195 -25.09078 10621 ft 321 kts 219°
2026-05-04 14:24 37.69497 -25.10831 10461 ft 311 kts 219°
2026-05-04 14:25 37.67834 -25.12544 10169 ft 306 kts 218°
2026-05-04 14:25 37.64573 -25.15894 9536 ft 297 kts 218°
2026-05-04 14:25 37.62998 -25.17513 9202 ft 287 kts 218°
2026-05-04 14:26 37.61489 -25.19104 8821 ft 279 kts 224°
2026-05-04 14:26 37.60394 -25.21072 8442 ft 272 kts 248°
2026-05-04 14:26 37.59962 -25.23335 8072 ft 263 kts 270°
2026-05-04 14:26 37.60185 -25.25569 7702 ft 253 kts 291°
2026-05-04 14:27 37.60824 -25.27600 7343 ft 248 kts 296°
2026-05-04 14:27 37.61473 -25.29626 6975 ft 250 kts 295°
2026-05-04 14:27 37.62114 -25.31682 6534 ft 252 kts 295°
2026-05-04 14:27 37.62765 -25.33736 6041 ft 251 kts 295°
2026-05-04 14:28 37.63410 -25.35760 5706 ft 246 kts 295°
2026-05-04 14:28 37.64048 -25.37756 5404 ft 245 kts 295°
2026-05-04 14:28 37.64684 -25.39752 5088 ft 245 kts 295°
2026-05-04 14:28 37.65318 -25.41741 4744 ft 245 kts 295°
2026-05-04 14:29 37.66589 -25.45734 4082 ft 245 kts 295°
2026-05-04 14:29 37.67827 -25.49637 3435 ft 232 kts 295°
2026-05-04 14:30 37.68413 -25.51485 3130 ft 221 kts 295°
2026-05-04 14:30 37.68972 -25.53245 2834 ft 211 kts 296°
2026-05-04 14:30 37.70005 -25.56505 2287 ft 189 kts 296°
2026-05-04 14:31 37.70479 -25.58005 2041 ft 179 kts 297°
2026-05-04 14:31 37.71348 -25.60751 1576 ft 159 kts 298°
2026-05-04 14:32 37.72136 -25.63242 1161 ft 144 kts 297°
2026-05-04 14:32 37.72497 -25.64384 959 ft 137 kts 297°
2026-05-04 14:32 37.72849 -25.65495 772 ft 136 kts 298°
2026-05-04 14:32 37.73199 -25.66600 591 ft 135 kts 297°
2026-05-04 14:33 37.73546 -25.67702 408 ft 135 kts 295°
2026-05-04 14:33 37.73891 -25.68803 240 ft 135 kts 298°
2026-05-04 14:33 37.74215 -25.69807 233 ft 105 kts 291°
2026-05-04 14:33 37.74422 -25.70471 259 ft 61 kts 291°
2026-05-04 14:34 37.74535 -25.70827 269 ft 24 kts 292°
2026-05-04 14:34 37.74604 -25.70856 272 ft 7 kts 22°
2026-05-04 14:34 37.74660 -25.70828 273 ft 11 kts 19°
2026-05-04 14:34 37.74727 -25.70869 272 ft 10 kts 295°
2026-05-04 14:35 37.74753 -25.70958 272 ft 8 kts 291°
2026-05-04 14:35 37.74776 -25.71033 272 ft 9 kts 291°
2026-05-04 14:35 37.74803 -25.71081 272 ft 4 kts
2026-05-04 14:35 37.74841 -25.71067 272 ft 7 kts 22°
2026-05-04 14:36 37.74864 -25.71055 272 ft 0 kts 23°